Location: Newark
(52.3735°N, 16.9806°E)
Time: 12:15:59
(UTC+00:00)

Envisat - Pass Details

Date: 22 September 2021
Orbit: 764 x 766 km, 98.2° (Epoch: 23 October)

Event Time Altitude Azimuth Distance (km) Brightness Sun altitude
Rises 02:27:36 0° 30° (NNE) 3,245 7.2 -19.9°
Reaches altitude 10° 02:31:34 10° 61° (ENE) 2,311 6.7 -19.4°
Maximum altitude 02:33:29 12° 83° (E) 2,168 6.3 -19.1°
Drops below altitude 10° 02:35:25 10° 106° (ESE) 2,304 6.1 -18.9°
Sets 02:39:20 0° 137° (SE) 3,222 6.5 -18.3°
